Home   Weather   Cambridge   Past weeks

Flag for USA Past Weather in Cambridge, Massachusetts, USA — Yesterday and Last 2 Weeks

63 °F

Low clouds.

Feels Like: 63 °F
Forecast: 42 / 63 °F
Wind: 8 mph from Northwest

Location: Logan International Airport

Current Time: Oct 22, 2016 at 7:50:25 AM

Latest Report: Oct 22, 2016 at 6:54 AM

Visibility: 10 mi

Pressure: 29.27 "Hg

Humidity: 97%

Dew Point: 62 °F

Location of CambridgeLocation

Past Weather in Cambridge — Graph


Cambridge Temperature Yesterday

Maximum temperature yesterday: 72 °F (at 11:54 AM)
Minimum temperature yesterday: 58 °F (at 12:54 AM)
Average temperature yesterday: 64 °F

High & Low Weather Summary for the Past Weeks

High81 °F (Oct 19, 1:54 PM)100% (Oct 8, 7:54 AM)30.48 "Hg (Oct 8, 7:54 AM)
Low42 °F (Oct 15, 5:54 AM)35% (Oct 11, 11:54 AM)29.27 "Hg (Oct 22, 5:54 AM)
Average59 °F76%30.10 "Hg
* Reported Oct 7 5:54 AM — Oct 22 5:54 AM, Cambridge, Weather by CustomWeather, © 2016

Note: Actual official high and low records may vary slightly from our data, if they occured in-between our weather recording intervals... More about our weather records


Cambridge Weather History for the Previous 24 Hours

Scroll right to see more
Time TempWeatherWind HumidityBarometerVisibility
5:54 AM
Sat, Oct 22
63 °FLow clouds.9 mph100%29.27 "Hg3 mi
5:04 AM63 °FMostly cloudy.7 mph100%29.28 "Hg10 mi
4:54 AM63 °FLow clouds.7 mph100%29.28 "Hg10 mi
3:54 AM64 °FFog.9 mph100%29.29 "Hg1 mi
2:54 AM64 °FLight rain. Fog.8 mph100%29.31 "Hg1 mi
1:54 AM65 °FFog.No wind100%29.34 "Hg1 mi
12:54 AM64 °FFog.3 mph100%29.36 "Hg2 mi
11:58 PM
Fri, Oct 21
64 °FLight rain. Fog.5 mph100%29.39 "Hg2 mi
11:01 PM64 °FLight rain. Fog.6 mph100%29.41 "Hg2 mi
9:54 PM65 °FRain. Fog.9 mph100%29.44 "Hg1 mi
8:54 PM63 °FThunderstorms. Fog.13 mph100%29.45 "Hg1 mi
7:54 PM62 °FLight rain. Fog.17 mph100%29.49 "Hg1 mi
6:54 PM63 °FDrizzle. Fog.14 mph100%29.54 "Hg1 mi
5:54 PM64 °FMostly cloudy.15 mph97%29.57 "Hg7 mi
4:54 PM65 °FMore clouds than sun.15 mph94%29.62 "Hg10 mi
3:54 PM66 °FMostly cloudy.13 mph90%29.65 "Hg10 mi
2:54 PM67 °FCloudy.13 mph90%29.68 "Hg10 mi
1:54 PM67 °FPartly sunny.12 mph90%29.72 "Hg10 mi
12:54 PM69 °FMore clouds than sun.12 mph87%29.75 "Hg10 mi
11:54 AM72 °FScattered clouds.12 mph81%29.79 "Hg10 mi
10:54 AM67 °FBroken clouds.7 mph93%29.82 "Hg10 mi
9:54 AM64 °FLow clouds.8 mph100%29.85 "Hg3 mi
9:01 AM62 °FFog.9 mph100%29.88 "Hg3 mi
7:54 AM63 °FFog.6 mph100%29.89 "Hg1 mi
Weather by CustomWeather, © 2016

See weather overviewHow to use our weather pages